Dickinson, ND

2:56 PM MDT on June 22, 2017 (GMT -0600)
Dickinson Municipal

Weather History for KDIK - December, 2012

Change the Weather History Date:

Sunday, December 16, 2012

  Actual Average Record
Temperature  
Mean Temperature 13 °F 17 °F  
Max Temperature 23 °F 28 °F 58 °F (1962)
Min Temperature 3 °F 7 °F -29 °F (1914)
Degree Days  
Heating Degree Days 52 48  
Month to date heating degree days 652 729  
Since 1 July heating degree days 2576 2806  
Cooling Degree Days 0 0  
Month to date cooling degree days 0 0  
Year to date cooling degree days 591 419  
Moisture  
Dew Point 10 °F    
Average Humidity 88    
Maximum Humidity 96    
Minimum Humidity 80    
Precipitation  
Precipitation T in 0.01 in 0.34 in (1929)
Month to date precipitation 0.19 0.12  
Year to date precipitation 10.34 15.65  
Sea Level Pressure  
Sea Level Pressure 29.72 in    
Wind  
Wind Speed 6 mph (SSE)    
Max Wind Speed 13 mph    
Max Gust Speed 14 mph    
Visibility 5 miles    
Events Fog    
T = Trace of Precipitation, MM = Missing Value Source: NWS Daily Summary

Daily Weather History Graph

Daily Weather History Graph

Search for Another Location

Airport or City:

Trip Planner

Search our weather history database for the weather conditions in past years. The results will help you decide how hot, cold, wet, or windy it might be!

Date:

Astronomy

Dec. 16, 2012 Rise Set
Actual Time 7:30 AM MST 4:03 PM MST
Civil Twilight 6:55 AM MST 4:38 PM MST
Nautical Twilight 6:16 AM MST 5:17 PM MST
Astronomical Twilight 5:39 AM MST 5:54 PM MST
Moon 9:54 AM MST (12/16) 8:33 PM MST (12/16)
Length of Visible Light 9h 43m
Length of Day
8h 33m
Waxing Crescent, 16% of the Moon is Illuminated
Dec 16
Waxing Crescent
Dec 19
First Quarter
Dec 28
Full
Jan 4
Last Quarter
Jan 11
New

Hourly Weather History & Observations

Time (MST) Temp. Windchill Dew Point Humidity Pressure Visibility Wind Dir Wind Speed Gust Speed Precip Events Conditions
12:23 AM 10.4 °F - 6.8 °F 85% 29.71 in 0.2 mi Calm Calm - N/A Fog Light Freezing Fog
12:56 AM 7.0 °F - 5.0 °F 92% 29.83 in 0.2 mi Calm Calm - N/A Fog Light Freezing Fog
1:07 AM 6.8 °F - 3.2 °F 85% 29.70 in 0.2 mi Calm Calm - N/A Fog Light Freezing Fog
1:27 AM 6.8 °F - 3.2 °F 85% 29.69 in 0.5 mi Calm Calm - N/A Fog Light Freezing Fog
1:41 AM 6.8 °F - 3.2 °F 85% 29.70 in 0.2 mi Calm Calm - N/A Fog Light Freezing Fog
1:53 AM 6.8 °F - 3.2 °F 85% 29.70 in 0.5 mi Calm Calm - N/A Fog Light Freezing Fog
1:56 AM 6.1 °F - 3.0 °F 87% 29.83 in 0.5 mi Calm Calm - N/A Fog Light Freezing Fog
2:03 AM 6.8 °F - 3.2 °F 85% 29.70 in 0.2 mi Calm Calm - N/A Fog Light Freezing Fog
2:26 AM 5.0 °F - 1.4 °F 85% 29.69 in 0.2 mi Calm Calm - N/A Fog Light Freezing Fog
2:56 AM 3.9 °F -5.3 °F 1.0 °F 88% 29.83 in 0.2 mi South 4.6 mph - N/A Fog Light Freezing Fog
3:13 AM 3.2 °F -7.8 °F 1.4 °F 92% 29.69 in 0.5 mi SSE 5.8 mph - N/A Fog Light Freezing Fog
3:24 AM 3.2 °F -6.2 °F 1.4 °F 92% 29.69 in 2.0 mi SSE 4.6 mph - N/A   Overcast
3:32 AM 3.2 °F -6.2 °F 1.4 °F 92% 29.69 in 0.8 mi SSE 4.6 mph - N/A   Overcast
3:42 AM 3.2 °F -6.2 °F 1.4 °F 92% 29.69 in 0.2 mi South 4.6 mph - N/A Fog Light Freezing Fog
3:51 AM 3.2 °F -6.2 °F 1.4 °F 92% 29.69 in 0.2 mi South 4.6 mph - N/A Fog Light Freezing Fog
3:56 AM 3.0 °F -4.4 °F 1.0 °F 91% 29.83 in 0.2 mi SSE 3.5 mph - N/A Fog Light Freezing Fog
4:02 AM 3.2 °F -4.2 °F -0.4 °F 85% 29.68 in 0.5 mi SSE 3.5 mph - N/A Fog Light Freezing Fog
4:18 AM 3.2 °F -7.8 °F 1.4 °F 92% 29.68 in 0.2 mi South 5.8 mph - N/A Fog Light Freezing Fog
4:56 AM 6.1 °F - 1.9 °F 83% 29.82 in 0.2 mi Calm Calm - N/A Fog Light Freezing Fog
5:17 AM 6.8 °F - 3.2 °F 85% 29.68 in 0.8 mi Calm Calm - N/A   Mist
5:25 AM 6.8 °F -2.0 °F 1.4 °F 79% 29.68 in 1.5 mi East 4.6 mph - N/A   Overcast
5:35 AM 6.8 °F -2.0 °F 1.4 °F 79% 29.68 in 2.5 mi East 4.6 mph - N/A   Overcast
5:43 AM 6.8 °F -2.0 °F 3.2 °F 85% 29.68 in 5.0 mi ENE 4.6 mph - N/A   Overcast
5:56 AM 6.1 °F -5.6 °F 3.0 °F 87% 29.82 in 1.2 mi East 6.9 mph - N/A   Overcast
6:14 AM 6.8 °F -4.8 °F 3.2 °F 85% 29.67 in 0.5 mi East 6.9 mph - N/A Fog Light Freezing Fog
6:28 AM 6.8 °F - 3.2 °F 85% 29.68 in 2.0 mi Calm Calm - N/A   Overcast
6:37 AM 6.8 °F - 3.2 °F 85% 29.68 in 7.0 mi Calm Calm - N/A   Overcast
6:56 AM 7.0 °F 0.1 °F 3.0 °F 84% 29.83 in 10.0 mi East 3.5 mph - N/A   Overcast
7:56 AM 10.0 °F 1.8 °F 6.1 °F 84% 29.83 in 10.0 mi ESE 4.6 mph - N/A   Overcast
8:56 AM 14.0 °F 5.1 °F 10.9 °F 88% 29.83 in 6.0 mi ESE 5.8 mph - N/A   Overcast
9:56 AM 16.0 °F 7.4 °F 12.9 °F 88% 29.83 in 10.0 mi East 5.8 mph - 0.00 in   Overcast
10:56 AM 19.0 °F 11.1 °F 15.1 °F 85% 29.80 in 10.0 mi East 5.8 mph - N/A   Overcast
11:37 AM 21.2 °F 10.9 °F 17.6 °F 86% 29.66 in 10.0 mi SSE 9.2 mph - N/A   Overcast
11:56 AM 21.0 °F 11.4 °F 17.1 °F 85% 29.79 in 10.0 mi SE 8.1 mph - N/A   Overcast
12:41 PM 21.2 °F 11.7 °F 19.4 °F 93% 29.65 in 10.0 mi SSE 8.1 mph - N/A   Overcast
12:56 PM 21.9 °F 12.5 °F 18.0 °F 85% 29.78 in 10.0 mi SSE 8.1 mph - N/A   Overcast
1:09 PM 21.2 °F 12.6 °F 19.4 °F 93% 29.65 in 10.0 mi SSE 6.9 mph - N/A   Overcast
1:44 PM 23.0 °F 13.9 °F 19.4 °F 86% 29.64 in 10.0 mi SSE 8.1 mph - N/A   Overcast
1:56 PM 23.0 °F 13.9 °F 19.9 °F 88% 29.78 in 10.0 mi SSE 8.1 mph - N/A   Overcast
2:06 PM 23.0 °F 13.9 °F 19.4 °F 86% 29.64 in 10.0 mi SSE 8.1 mph - N/A   Overcast
2:18 PM 23.0 °F 13.9 °F 19.4 °F 86% 29.64 in 10.0 mi SE 8.1 mph - N/A   Overcast
2:49 PM 23.0 °F 13.9 °F 19.4 °F 86% 29.64 in 10.0 mi SE 8.1 mph - N/A   Overcast
2:56 PM 23.0 °F 15.8 °F 19.9 °F 88% 29.78 in 9.0 mi SSE 5.8 mph - N/A   Overcast
3:56 PM 21.9 °F 13.4 °F 19.0 °F 89% 29.78 in 9.0 mi ESE 6.9 mph - N/A   Overcast
4:56 PM 21.0 °F 11.4 °F 19.0 °F 92% 29.79 in 7.0 mi SSE 8.1 mph - N/A   Overcast
5:10 PM 21.2 °F 11.7 °F 19.4 °F 93% 29.65 in 6.0 mi SSE 8.1 mph - N/A   Overcast
5:13 PM 21.2 °F 11.7 °F 19.4 °F 93% 29.65 in 6.0 mi SE 8.1 mph - N/A   Overcast
5:42 PM 21.2 °F 11.7 °F 19.4 °F 93% 29.65 in 5.0 mi SSE 8.1 mph - N/A   Overcast
5:56 PM 21.9 °F 11.7 °F 19.9 °F 92% 29.79 in 5.0 mi SSE 9.2 mph - N/A   Overcast
6:12 PM 21.2 °F 11.7 °F 19.4 °F 93% 29.66 in 4.0 mi SSE 8.1 mph - N/A   Overcast
6:21 PM 21.2 °F 11.7 °F 19.4 °F 93% 29.66 in 4.0 mi South 8.1 mph - N/A   Overcast
6:54 PM 21.2 °F 10.9 °F 17.6 °F 86% 29.66 in 5.0 mi South 9.2 mph - N/A   Overcast
6:56 PM 19.9 °F 9.3 °F 18.0 °F 92% 29.79 in 5.0 mi South 9.2 mph - N/A   Overcast
7:56 PM 18.0 °F 6.1 °F 15.1 °F 88% 29.79 in 6.0 mi South 10.4 mph - N/A   Clear
8:56 PM 16.0 °F 5.3 °F 12.9 °F 88% 29.78 in 7.0 mi South 8.1 mph - N/A   Partly Cloudy
9:56 PM 15.1 °F 2.5 °F 12.0 °F 88% 29.76 in 4.0 mi South 10.4 mph - N/A   Clear
10:51 PM 14.0 °F 5.1 °F 12.2 °F 93% 29.63 in 9.0 mi South 5.8 mph - N/A   Scattered Clouds
10:56 PM 14.0 °F 3.9 °F 12.0 °F 92% 29.76 in 7.0 mi South 6.9 mph - N/A   Mostly Cloudy
11:16 PM 14.0 °F 3.9 °F 12.2 °F 93% 29.63 in 2.5 mi SSW 6.9 mph - N/A   Overcast
11:24 PM 14.0 °F 3.9 °F 12.2 °F 93% 29.63 in 4.0 mi South 6.9 mph - N/A   Overcast
11:49 PM 14.0 °F 3.9 °F 10.4 °F 86% 29.62 in 8.0 mi South 6.9 mph - N/A   Mostly Cloudy
11:56 PM 14.0 °F 3.9 °F 10.9 °F 88% 29.74 in 9.0 mi South 6.9 mph - N/A   Mostly Cloudy